Regional Weather Roundup
Issued by NWS

Home | Current Version | Previous Version | Graphics & Text | Print | Product List | Glossary Off
Versions: 1 2 3 4 5 6 7 8 9 10 11 12 13 14 15 16 17 18 19 20 21 22 23 24 25 26 27 28 29 30 31 32 33 34 35 36 37 38 39 40 41 42 43 44 45 46 47 48 49 50

000
ASUS43 KMKX 210921
RWRWI

WISCONSIN REGIONAL WEATHER ROUNDUP
NATIONAL WEATHER SERVICE MILWAUKEE/SULLIVAN WI
400 AM CDT SUN SEP 21 2014

NOTE: "FAIR" INDICATES FEW OR NO CLOUDS BELOW 12,000 FEET WITH NO
SIGNIFICANT WEATHER AND/OR OBSTRUCTIONS TO VISIBILITY.

WIZ001-002-006>008-014>016-023>028-211000-
NORTHWEST WISCONSIN

CITY           SKY/WX    TMP DP  RH WIND       PRES   REMARKS
SUPERIOR ARPT  CLOUDY    52  51  97 NE12G18   29.86R
ASHLAND        LGT RAIN  51  49  92 N20G25    29.83R FOG
HAYWARD        LGT RAIN  54  52  93 VRB7      29.78R
SIREN          DRIZZLE   51  49  95 NW9       29.85R
RICE LAKE      DRIZZLE   51  49  90 W13G20    29.83R
LADYSMITH      LGT RAIN  54  52  94 NW12G17   29.77R
EAU CLAIRE     CLOUDY    52  49  89 W14       29.79R
MENOMONIE      CLOUDY    55  47  76 W14G22    29.82R
NEW RICHMOND   CLOUDY    53  46  79 NW14G21   29.87R
OSCEOLA        CLOUDY    53  48  82 NW9G17    29.90R
$$

WIZ003>005-009-010-017-018-211000-
NORTH CENTRAL WISCONSIN

CITY           SKY/WX    TMP DP  RH WIND       PRES   REMARKS
WOODRUFF       LGT RAIN  52  50  94 N5        29.72R
RHINELANDER    LGT RAIN  51  50  96 VRB5      29.72R
EAGLE RIVER    RAIN      51  51 100 N8        29.70R
LAND O LAKES   LGT RAIN  53  51  95 NE6       29.73R
PHILLIPS       CLOUDY    52  51  97 NW6       29.74R
TOMAHAWK       RAIN      51  50  95 NW5       29.72R
MEDFORD        LGT RAIN  50  49  97 NW8       29.72R
MERRILL        LGT RAIN  53  53  99 N7        29.70R
$$

WIZ029-030-035-036-043>047-211000-
CENTRAL WISCONSIN

CITY           SKY/WX    TMP DP  RH WIND       PRES   REMARKS
WAUSAU         LGT RAIN  54  52  93 NW12G17   29.69R
MOSINEE        CLOUDY    52  52 100 W12G17    29.71R FOG
MARSHFIELD     LGT RAIN  53  50  89 NW20G25   29.72R FOG
STEVENS POINT  DRIZZLE   52  50  93 W7G18     29.70R
WAUPACA        CLOUDY    57  55  92 W10       29.69R
WAUTOMA        CLOUDY    55  52  88 W9        29.72R
WISC RAPIDS    LGT RAIN  54  51  90 W13G20    29.73R FOG
CAMP DOUGLAS   CLOUDY    55  52  88 W17G25    29.74S
$$

WIZ011>013-019>022-031-037>040-048>050-211000-
NORTHEAST WISCONSIN

CITY           SKY/WX    TMP DP  RH WIND       PRES   REMARKS
ANTIGO         CLOUDY    52  51  98 NW3       29.69R
STURGEON BAY   CLOUDY    55  52  88 N3        29.64F
GREEN BAY      CLOUDY    56  55  97 W8        29.65S
MANITOWOC      CLOUDY    57  55  93 W12       29.65R
APPLETON       DRIZZLE   54  54 100 W12       29.67F
CLINTONVILLE   RAIN      55  54  94 W7        29.66F
OSHKOSH        CLOUDY    56  53  90 W9        29.68R
$$

WIZ032>034-041-042-053>061-211000-
SOUTHWEST WISCONSIN

CITY           SKY/WX    TMP DP  RH WIND       PRES   REMARKS
LA CROSSE      MOCLDY    60  49  66 NW17G30   29.80R
SPARTA         CLOUDY    57  47  69 W16G23    29.78R
VIROQUA        FAIR      55  51  87 W10G25    29.80R
BOSCOBEL       CLEAR     57  51  80 SW7       29.81S
PRAIRIE DU CHI CLEAR     56  51  86 W6        29.84R
PLATTEVILLE    FAIR      54  52  93 W9        29.84R
$$

WIZ056-057-062-063-064-067-068-211000-
SOUTH CENTRAL WISCONSIN

CITY           SKY/WX    TMP DP  RH WIND       PRES   REMARKS
BARABOO/DELLS  PTCLDY    54  49  85 W8G16     29.75S
LONE ROCK      CLEAR     59  52  77 W9        29.78R
WATERTOWN      CLEAR     54  53  97 W7        29.74S
MADISON        CLEAR     56  51  84 W8        29.75S
MIDDLETON      FAIR      56  53  91 W14       29.76S
MONROE         CLEAR     54  52  94 W16       29.79S
JANESVILLE     CLEAR     55  52  88 W8        29.78R
$$

WIZ051-052-058>065-066-070>072-211000-
SOUTHEAST WISCONSIN

CITY           SKY/WX    TMP DP  RH WIND       PRES   REMARKS
MILWAUKEE      MOCLDY    60  54  80 W15G24    29.71R
WAUKESHA       CLEAR     54  50  87 W16G23    29.73S
MILWAUKEE/TIMM CLEAR     55  50  82 W14G22    29.71S
RACINE         CLEAR     59  52  77 W13G22    29.73R
BURLINGTON     CLEAR     55  50  85 W10       29.75R
KENOSHA        CLEAR     58  54  86 W14       29.73R
FOND DU LAC    MOCLDY    56  51  84 W9        29.70S
SHEBOYGAN      MOCLDY    57  53  86 W9        29.67S
WEST BEND      PTCLDY    55  50  82 W16       29.69S
JUNEAU         PTCLDY    53  51  92 SW9       29.74R
$$

LSZ147-162-211000-
LAKE SUPERIOR

STATION/POSITION TIME  TEMP    WIND        PRES    WAVE
                       AIR SEA DIR/SP/G            HT/PER
                 (UTC) (F)     (DEG/KT/KT) (MB)    (FT/S)
W MID LAKE BUOY  0850   49 46   40/ 12/ 14 1009.2R   2/ 4
DEVILS ISLAND    0900   52      50/ 19/ 20 1010.3R
PORT WING        0900   51      40/ 16/ 24 1011.2R
SAXON HARBOR     0900   53      50/ 23     1009.1R
$$

LMZ867-665-643>646-211000-
LAKE MICHIGAN

STATION/POSITION TIME  TEMP    WIND        PRES    WAVE
                       AIR SEA DIR/SP/G            HT/PER
                 (UTC) (F)     (DEG/KT/KT) (MB)    (FT/S)
N MID LAKE BUOY  0850   56 58  360/ 16/ 19 1002.6F   2/ 6
NORTHPORT PIER   0800   56      40/  9/ 12 1003.4F
SISTER BAY       0812           10/  4/  7   N/A
KEWAUNEE LAKESHO 0900   56     330/  3/  5 1002.8R
SHEBOYGAN LAKESH 0900   59 54  280/ 15/ 19 1004.6R
PORT WASHINGTON  0840   60     290/  6/ 11 1006.1R
ATWATER BUOY     0900   58     270/ 14/ 17 1006.7R
MILWAUKEE LAKESH 0900   60     290/ 12/ 19   N/A
S MID LAKE BUOY  0850   63 63  280/ 23/ 27 1005.0R   2/ 3
KENOSHA   LAKESH 0900   60     290/ 11/ 18 1006.4R
$$

TC  - TEMPERATURE IN CELSIUS
VSB - VISIBILITY IN STATUTE MILES
WCI - WIND CHILL INDEX
HX  - HEAT INDEX




USA.gov is the U.S. government's official web portal to all federal, state and local government web resources and services.